Flag for Pakistan Weather past 2 weeks in Jhelum, Pakistan

Now
77 °F

Haze.


Feels Like: 79 °F
Forecast: 80 / 104 °F
Wind: 5 mph from Northeast

Location: Islamabad Airport

Current Time: Jul 3, 2015 at 4:21:05 AM

Latest Report: Jul 3, 2015 at 4:00 AM


Visibility: 3 mi

Pressure: 29.65 "Hg

Humidity: 74%

Dew point: 68 °F

Location of JhelumLocation

Historic Weather in Jhelum — Graph

°F

Jhelum temperature yesterday

Maximum temperature yesterday: 90 °F (at 4:00 PM)
Minimum temperature yesterday: 75 °F (at 10:00 AM)
Average temperature yesterday: 83 °F

Past Weeks' High & Low Weather Summary

 TemperatureHumidityPressure
High147 °F (Jun 21, 7:00 AM)94% (Jun 24, 11:00 AM)29.80 "Hg (Jun 24, 11:00 AM)
Low66 °F (Jun 24, 11:00 AM)8% (Jun 21, 7:00 AM)29.45 "Hg (Jun 20, 6:00 PM)
Average88 °F49%29.59 "Hg
* Reported Jun 18 3:00 AM — Jul 3 3:00 AM, Jhelum, Weather by CustomWeather, © 2015

Note: Actual official high and low records may vary slightly from our data, if they occured in-between our weather recording intervals... More about our weather records

Advertising

Jhelum weather history for previous 24 hours

 ConditionsComfort  
Time TempWeatherWind HumidityBarometerVisibility
3:00 AM
Fri, Jul 3
77 °FHaze.5 mph74%29.65 "Hg3 mi
2:00 AM79 °FPassing clouds.5 mph70%29.65 "Hg3 mi
1:00 AM79 °FPassing clouds.5 mph65%29.68 "Hg4 mi
12:00 AM81 °FPassing clouds.5 mph62%29.68 "Hg4 mi
11:00 PM
Thu, Jul 2
81 °FPassing clouds.7 mph62%29.68 "Hg4 mi
10:00 PM82 °FPassing clouds.5 mph58%29.68 "Hg4 mi
9:00 PM84 °FPassing clouds.5 mph58%29.68 "Hg4 mi
7:00 PM88 °FPassing clouds.7 mph55%29.65 "Hg4 mi
6:00 PM88 °FScattered clouds.9 mph55%29.65 "Hg4 mi
5:00 PM90 °FScattered clouds.9 mph49%29.68 "Hg4 mi
4:00 PM90 °FScattered clouds.7 mph49%29.68 "Hg4 mi
3:00 PM86 °FScattered clouds.9 mph62%29.71 "Hg4 mi
2:00 PM84 °FScattered clouds.7 mph66%29.71 "Hg4 mi
1:00 PM86 °FBroken clouds.7 mph62%29.74 "HgN/A
12:00 PM81 °FBroken clouds.7 mph74%29.77 "HgN/A
11:00 AM77 °FBroken clouds.18 mph79%29.77 "Hg2 mi
10:00 AM75 °FDrizzle. Broken clouds.14 mph83%29.80 "Hg2 mi
5:00 AM77 °FStrong thunderstorms. Partly cloudy.35 mph74%29.74 "Hg1 mi
4:00 AM81 °FThunderstorms. Partly cloudy.9 mph58%29.71 "Hg4 mi
Weather by CustomWeather, © 2015

See weather overviewHow to use our weather pages